Home   Weather   Port of Spain   Past weeks

Flag for Trinidad and Tobago Past Weather in Port of Spain, Trinidad and Tobago — Yesterday and Last 2 Weeks

Now
84 °F

Passing clouds.


Feels Like: 94 °F
Forecast: N/A
Wind: No wind

Location: Piarco International Airport - Trinidad

Current Time: Sep 26, 2016 at 6:42:36 PM

Latest Report: Sep 26, 2016 at 6:00 PM


Visibility: N/A

Pressure: 29.86 "Hg

Humidity: 79%

Dew Point: 77 °F

Location of Port of SpainLocation

Past Weather in Port of Spain — Graph

°F

Port of Spain Temperature Yesterday

Maximum temperature yesterday: 90 °F (at 11:00 AM)
Minimum temperature yesterday: 75 °F (at 4:00 AM)
Average temperature yesterday: 81 °F

High & Low Weather Summary for the Past Weeks

 TemperatureHumidityPressure
High95 °F (Sep 22, 12:00 PM)100% (Sep 12, 12:00 AM)30.01 "Hg (Sep 12, 12:00 AM)
Low75 °F (Sep 12, 5:00 AM)49% (Sep 16, 2:00 PM)29.80 "Hg (Sep 12, 4:00 PM)
Average83 °F82%29.90 "Hg
* Reported Sep 11 5:00 PM — Sep 26 5:00 PM, Port of Spain, Weather by CustomWeather, © 2016

Note: Actual official high and low records may vary slightly from our data, if they occured in-between our weather recording intervals... More about our weather records

Advertising

Port of Spain Weather History for the Previous 24 Hours

Scroll right to see more
 ConditionsComfort  
Time TempWeatherWind HumidityBarometerVisibility
5:00 PM
Mon, Sep 26
84 °FPassing clouds.No wind79%29.83 "HgN/A
4:00 PM84 °FScattered clouds.5 mph74%29.83 "HgN/A
3:00 PM88 °FScattered clouds.12 mph66%29.83 "HgN/A
2:00 PM91 °FScattered showers. Scattered clouds.13 mph63%29.86 "HgN/A
1:00 PM91 °FPartly sunny.8 mph59%29.86 "HgN/A
12:00 PM90 °FPartly sunny.7 mph67%29.92 "HgN/A
11:00 AM91 °FScattered clouds.8 mph63%29.92 "HgN/A
10:00 AM90 °FPassing clouds.9 mph67%29.95 "HgN/A
9:00 AM86 °FPassing clouds.No wind75%29.95 "HgN/A
8:00 AM84 °FPassing clouds.No wind79%29.95 "HgN/A
7:00 AM77 °FPassing clouds.No wind94%29.92 "HgN/A
6:00 AM75 °FPassing clouds.No wind94%29.89 "HgN/A
5:00 AM75 °FPassing clouds.No wind94%29.89 "HgN/A
4:00 AM75 °FPassing clouds.No wind94%29.89 "HgN/A
3:00 AM75 °FPassing clouds.No wind94%29.89 "HgN/A
2:00 AM75 °FPassing clouds.No wind94%29.89 "HgN/A
1:00 AM75 °FPassing clouds.No wind94%29.89 "HgN/A
12:00 AM77 °FPassing clouds.No wind89%29.92 "HgN/A
11:00 PM
Sun, Sep 25
77 °FPassing clouds.No wind94%29.92 "HgN/A
10:00 PM77 °FPassing clouds.No wind94%29.92 "HgN/A
9:00 PM79 °FPassing clouds.No wind89%29.92 "HgN/A
8:00 PM79 °FPassing clouds.No wind89%29.89 "HgN/A
7:00 PM81 °FPassing clouds.No wind84%29.89 "HgN/A
6:00 PM81 °FPassing clouds.6 mph89%29.89 "HgN/A
Weather by CustomWeather, © 2016

See weather overviewHow to use our weather pages